User: anonymous   Login
Location: Unspecified
(0.0000°N, 0.0000°E)
Time: 13:31:49
(UTC+00:00)
Language:

Vela 4A - Orbit

View from above orbital plane
View from above orbital plane
View from above satellite
View from above satellite

Ground track
Ground track

The orbit data is extracted from the following two-line orbital elements,

1 02765U 67040A   15211.85873545 -.00000762  00000-0  00000+0 0  9997
2 02765 005.2173 347.9170 4602649 196.9436 358.4395 00.21473839 37868
Epoch (UTC): 30 July 2015 20:36:34
Eccentricity: 0.4602649
inclination: 5.2173°
perigee height: 57199 km
apogee height: 165632 km
right ascension of ascending node: 347.9170°
argument of perigee: 196.9436°
revolutions per day: 0.21473839
mean anomaly at epoch: 358.4395°
orbit number at epoch: 3786

The dashed part of the orbit path shows where the satellite is in the earth's shadow,  

DLR